Regional Weather Roundup
Issued by NWS

Home | Current Version | Previous Version | Text Only | Print | Product List | Glossary On
Versions: 1 2 3 4 5 6 7 8 9 10 11 12 13 14 15 16 17 18 19 20 21 22 23 24 25 26 27
000
ASPQ40 PGUM 181612
RWRPQ
WEATHER ROUNDUP FOR THE MARIANAS AND MICRONESIA
NATIONAL WEATHER SERVICE TIYAN GU
200 AM CHST SUN NOV 19 2017

GUZ001>004-181700-
MARIANA ISLANDS-

CITY           SKY/WX    TMP DP  RH WIND       PRES   REMARKS
GUAM AIRPORT   PTCLDY    81  77  89 E8        29.86F
ANDERSEN AFB   PTCLDY    79  73  83 E15       29.87F
ROTA AIRPORT   NOT AVBL
TINIAN AP      NOT AVBL
SAIPAN AP      CLOUDY    82  77  83 E14       29.85F HX  91

$$

PMZ161-181700-
REPUBLIC OF PALAU-

CITY           SKY/WX    TMP DP  RH WIND       PRES   REMARKS
KOROR AP       MOCLDY    79  75  89 CALM      29.79F
KOROR WSO      CLOUDY    81  79  94 CALM      29.80F

$$

PMZ171>174-181700-
FEDERATED STATES OF MICRONESIA-

CITY           SKY/WX    TMP DP  RH WIND       PRES   REMARKS
YAP AIRPORT    MOCLDY    81  77  89 VRB6      29.79F
CHUUK AP       PTCLDY    82  77  83 VRB3      29.74F HX  91
POHNPEI AP     PTCLDY    77  75  94 S6        29.72F
POHNPEI WSO    MOCLDY    75  75 100 S6        29.76F
KOSRAE AP      NOT AVBL

$$

PMZ181-181700-
REPUBLIC OF THE MARSHALL ISLANDS-

CITY           SKY/WX    TMP DP  RH WIND       PRES   REMARKS
KWAJALEIN AP   MOCLDY    82  77  83 E10       29.70F HX  91
MAJURO AP      NOT AVBL
MAJURO WSO     SHOWER    81  77  89 SE12      29.70S

$$





USA.gov is the U.S. government's official web portal to all federal, state and local government web resources and services.